[[{"header":{"parameterUnit":"m.s-1","parameterCategory":1,"la1":30.2992,"la2":30.254,"lo1":-89.0895,"lo2":-89.0443,"dy":0.0025,"dx":0.0025,"nx":19,"ny":19,"refTime":"2026-03-16T09:00:00:Z","depth":0,"parameterNumber":2,"parameterNumberName":"U-component_of_WINDS"},"data":[0,0,0,6.4943,6.4944,6.4957,6.4956,6.5011,6.5012,0,0,0,0,0,0,0,0,0,0,0,6.496,6.4961,6.4943,6.4944,6.4957,6.4956,6.5011,6.5012,0,0,0,0,0,0,0,0,0,0,0,6.496,6.4961,6.4962,6.4944,6.4957,6.4956,6.5011,6.4988,0,0,0,0,0,0,0,0,0,0,6.4969,6.5005,6.4961,6.4962,6.4944,6.4957,6.4956,6.4986,6.4989,6.5021,0,6.5052,0,6.5033,6.5018,6.5018,0,0,0,6.4929,6.5002,6.4987,6.4962,6.4944,6.4957,6.4946,6.4987,6.4991,6.5025,6.5053,6.5054,6.5034,6.5018,6.5019,6.5248,6.525,0,0,6.4928,6.4974,6.4984,6.499,6.4988,6.4946,6.4947,6.4989,6.5023,6.5053,6.5055,6.5035,6.5019,6.5019,6.5246,6.5249,0,0,0,6.4936,6.4974,6.4957,6.4989,6.4988,6.4947,6.4948,6.5021,6.5011,6.5055,6.5036,6.5019,6.502,6.5244,6.5247,6.5381,0,0,0,6.4935,6.4979,6.4957,6.4986,6.4988,6.5004,6.498,6.5009,6.5012,6.5035,6.5019,6.5021,6.5242,6.5246,6.5373,6.5436,0,0,0,6.4952,6.498,6.4989,6.4988,6.4995,6.5002,6.4995,6.5008,6.5001,6.5018,6.5021,6.5241,6.5245,6.5365,6.5424,6.5511,0,0,0,6.4984,6.5108,6.4992,6.5123,6.4995,6.5085,6.4994,6.5058,6.5089,6.502,6.5243,6.5247,6.5363,6.5417,6.5504,6.5593,6.5634,0,0,6.5166,6.5131,6.5204,6.5102,6.5223,6.5079,6.522,6.5205,6.5165,6.5223,6.5228,6.5375,6.5423,6.551,6.5847,6.588,0,0,0,6.5278,6.5331,6.5353,6.5384,6.5375,6.5373,6.5331,6.5326,6.5373,6.5204,6.5428,6.5455,6.5504,6.5545,6.5573,6.5612,6.5267,6.5267,6.5266,6.5601,6.5543,6.5661,6.5606,6.5637,6.5593,6.5614,6.5599,6.5531,6.5586,6.5603,6.5815,6.5864,6.5885,6.5926,6.5644,6.5645,6.5645,6.5646,6.5863,6.593,6.5838,6.5919,6.5858,6.5927,6.589,6.584,6.5897,6.5796,6.5836,6.5733,6.5923,6.5956,6.5655,6.5654,6.5652,6.5651,6.5651,6.607,6.6092,6.6083,6.6122,6.616,6.61,6.6158,6.61,6.6046,6.6086,6.6098,6.6096,6.6087,6.6096,6.6097,6.6097,6.6098,6.6098,6.6099,6.6288,6.6273,6.6328,6.6331,6.6344,6.6354,6.6313,6.6324,6.6323,6.6276,6.6276,6.6205,6.5951,6.589,6.611,6.6108,6.6107,6.6106,6.6105,6.6576,6.6502,6.6588,6.6601,6.66,6.6643,6.6568,6.6598,6.6599,6.6631,6.655,6.6372,6.6333,6.631,6.6259,6.6561,6.6561,6.6561,6.6561,6.6751,6.6725,6.6801,6.6826,6.6845,6.6786,6.6888,6.6859,6.6816,6.6814,6.6762,6.6688,6.6668,6.6641,6.6611,6.6562,6.6935,6.6935,6.6935,6.6926,6.69,6.6997,6.6953,6.6948,6.6946,6.704,6.7075,6.7011,6.6949,6.6811,6.6796,6.6676,6.664,6.6575,6.653,6.6439,0,0]},{"header":{"parameterUnit":"m.s-1","parameterCategory":1,"la1":30.2992,"la2":30.254,"lo1":-89.0895,"lo2":-89.0443,"dy":0.0025,"dx":0.0025,"nx":19,"ny":19,"refTime":"2026-03-16T09:00:00:Z","depth":0,"parameterNumber":3,"parameterNumberName":"V-component_of_WINDS"},"data":[0,0,0,-0.0255,-0.0238,0.0608,0.0612,0.1643,0.1652,0,0,0,0,0,0,0,0,0,0,0,-0.0539,-0.0533,-0.0257,-0.0237,0.0608,0.0612,0.1641,0.1652,0,0,0,0,0,0,0,0,0,0,0,-0.0542,-0.0535,-0.0527,-0.0234,0.0607,0.0612,0.1639,0.102,0,0,0,0,0,0,0,0,0,0,0.0208,-0.0086,-0.0536,-0.0527,-0.0229,0.0606,0.0612,0.0991,0.1059,0.1237,0,0.1384,0,0.1533,0.1717,0.172,0,0,0,-0.021,-0.0143,0.0113,-0.0526,-0.0222,0.0605,0.0234,0.103,0.1106,0.1326,0.1399,0.1439,0.155,0.1723,0.1728,0.2651,0.2653,0,0,-0.0256,-0.0402,0.006,0.0161,0.0023,0.0207,0.026,0.1077,0.1149,0.1403,0.1464,0.1567,0.173,0.1737,0.2648,0.2651,0,0,0,-0.0409,-0.0436,-0.0198,0.0117,0.0272,0.0231,0.0292,0.1113,0.1202,0.1476,0.1579,0.1735,0.1747,0.2645,0.2649,0.2654,0,0,0,-0.0435,-0.0525,-0.022,-0.0301,0.0256,0.0703,0.0308,0.1145,0.1242,0.1574,0.1736,0.1757,0.2642,0.2647,0.2647,0.2684,0,0,0,-0.0582,-0.0541,-0.0432,-0.031,0.0047,0.0693,0.083,0.1169,0.1304,0.1721,0.176,0.264,0.2646,0.2641,0.2674,0.288,0,0,0,-0.0779,-0.043,-0.0434,-0.0005,0.0039,0.0686,0.0827,0.132,0.1678,0.1741,0.2642,0.2649,0.2639,0.2668,0.2872,0.3028,0.3079,0,0,-0.042,-0.0393,-0.0129,-0.0108,0.0501,0.0569,0.1183,0.1655,0.1832,0.2368,0.2393,0.2649,0.2674,0.2879,0.341,0.3448,0,0,0,-0.0065,0.0122,0.0315,0.0644,0.1004,0.1316,0.1706,0.1878,0.2339,0.2076,0.2784,0.2803,0.2929,0.3011,0.3044,0.3161,0.2679,0.2679,0.2678,0.024,0.0436,0.0883,0.1179,0.1495,0.1886,0.2162,0.2462,0.2579,0.274,0.2903,0.3199,0.3289,0.3315,0.3434,0.2999,0.2999,0.2999,0.3,0.0783,0.1078,0.1208,0.1688,0.1893,0.2301,0.2686,0.2751,0.3161,0.3097,0.3219,0.3132,0.3351,0.3466,0.3002,0.3002,0.3001,0.3001,0.3001,0.1007,0.1182,0.1377,0.1864,0.2217,0.2506,0.2887,0.3064,0.3234,0.3353,0.3541,0.3541,0.3564,0.3428,0.3429,0.3431,0.3431,0.3432,0.3433,0.1162,0.1382,0.168,0.208,0.2307,0.2631,0.3016,0.3248,0.3549,0.3648,0.365,0.3746,0.3334,0.3226,0.345,0.3447,0.3445,0.3443,0.3442,0.1645,0.156,0.2019,0.2246,0.2726,0.306,0.3274,0.3726,0.3943,0.4124,0.4191,0.3856,0.3901,0.3877,0.379,0.4147,0.4147,0.4147,0.4147,0.1834,0.1868,0.2372,0.2721,0.3085,0.332,0.3831,0.4129,0.4428,0.4573,0.4545,0.4443,0.4409,0.4475,0.4438,0.4359,0.4853,0.4854,0.4855,0.214,0.2215,0.2618,0.2899,0.3283,0.3608,0.4093,0.449,0.4811,0.4887,0.469,0.466,0.4498,0.4435,0.4513,0.445,0.4311,0,0]}]]